Location: Eckley Miners' Village
(40.9930°N, 75.8630°W)
Time: 10:18:57
(UTC-04:00)

Vanguard 1 Rocket - Pass Details

Date: 11 March 2026
Orbit: 654 x 4213 km, 34.3° (Epoch: 11 April)

Event Time Altitude Azimuth Distance (km) Brightness Sun altitude
Rises 16:08:35 0° 256° (WSW) 4,188 11.8 30.3°
Reaches altitude 10° 16:13:38 10° 227° (SW) 3,860 12.2 29.5°
Maximum altitude 16:17:11 12° 207° (SSW) 4,131 11.9 29.0°
Drops below altitude 10° 16:21:28 10° 187° (S) 4,842 11.8 28.3°
Sets 16:30:30 0° 163° (SSE) 6,851 12.1 26.9°
